This is the latest recevied weather packets stored in our database for station/object KMASWX. If no packets are shown the sender has not sent any weather packets the latest 10 day(s).
| Time | Temp. | Humidity | Pressure | Rain* | Wind** | Luminosity | Snow |
|---|---|---|---|---|---|---|---|
| 1777864426 | 23.33° C | 25% | - | 0 mm | - | - | - |
| 1777864122 | 23.33° C | 25% | - | 0 mm | - | - | - |
| 1777863818 | 23.33° C | 25% | - | 0 mm | - | - | - |
| 1777863515 | 23.89° C | 24% | - | 0 mm | - | - | - |
| 1777863211 | 25° C | 24% | - | 0 mm | - | - | - |
| 1777862604 | 26.11° C | 20% | - | 0 mm | - | - | - |
| 1777862301 | 26.67° C | 20% | - | 0 mm | - | - | - |
| 1777861997 | 26.67° C | 19% | - | 0 mm | - | - | - |
| 1777861694 | 26.67° C | 19% | - | 0 mm | - | - | - |
| 1777861387 | 26.67° C | 19% | - | 0 mm | - | - | - |
| 1777861083 | 26.67° C | 17% | - | 0 mm | - | - | - |
| 1777860780 | 26.67° C | 19% | - | 0 mm | - | - | - |
| 1777860472 | 26.11° C | 17% | - | 0 mm | - | - | - |
| 1777860169 | 26.67° C | 18% | - | 0 mm | - | - | - |
| 1777859558 | 26.67° C | 18% | - | 0 mm | - | - | - |
| 1777859254 | 27.22° C | 18% | - | 0 mm | - | - | - |
| 1777858951 | 26.67° C | 18% | - | 0 mm | - | - | - |
| 1777858647 | 26.67° C | 18% | - | 0 mm | - | - | - |
| 1777858344 | 27.22° C | 17% | - | 0 mm | - | - | - |
| 1777858037 | 27.22° C | 18% | - | 0 mm | - | - | - |
| 1777857734 | 27.22° C | 18% | - | 0 mm | - | - | - |
| 1777857431 | 27.22° C | 17% | - | 0 mm | - | - | - |
| 1777857127 | 27.22° C | 16% | - | 0 mm | - | - | - |
| 1777856824 | 27.78° C | 16% | - | 0 mm | - | - | - |
| 1777856519 | 27.78° C | 17% | - | 0 mm | - | - | - |
* Rain latest 24 hours (hover to see other rain measurements)
** Current wind speed in m/s (hover to see current wind gust speed)